This demonstration page uses our WeatherBlox Daily Observations layout. Learn more.

Left ArrowRight Arrow

Hourly Observations for August 8, 2021

Temp ( °F °C ) Dew Point ( °F °C ) Humidity (%) Winds ( mph kmh ) Pressure ( in mb ) Visibility ( mi km ) Precip ( " mm )
12:56 am 00:56 Clear 72 22.2 65 18.3 79 79 ESE 14 22 29.76 1008 10 16 0.00 0.00
1:41 am 01:41 Cloudy with Thunderstorms 70 21 64 18 83 83 SE 16 26 29.75 1007 10 16 0.00 0.00
1:56 am 01:56 Mostly Cloudy with Thunderstorms 69 20.6 65 18.3 87 87 ESE 15 24 29.78 1008 10 16 0.00 0.00
2:07 am 02:07 Mostly Cloudy with Nearby Thunderstorms 68 20 64 18 88 88 ESE 18 30 29.75 1007 10 16 0.00 0.00
2:22 am 02:22 Mostly Cloudy 66 19 64 18 94 94 ESE 17 28 29.76 1008 10 16 0.00 0.00
2:53 am 02:53 Mostly Cloudy 66 19 63 17 88 88 SE 14 22 29.75 1008 10 16 0.00 0.00
2:56 am 02:56 Mostly Cloudy 66 18.9 63 17.2 90 90 SE 14 22 29.77 1008 10 16 0.00 0.00
3:09 am 03:09 Partly Cloudy with Nearby Thunderstorms 64 18 63 17 94 94 ESE 12 19 29.77 1008 10 16 0.00 0.00
3:37 am 03:37 Mostly Cloudy 64 18 63 17 94 94 SE 17 28 29.76 1008 10 16 0.00 0.00
3:48 am 03:48 Mostly Cloudy 64 18 64 18 100 100 S 17 28 29.77 1008 10 16 0.00 0.00
3:56 am 03:56 Mostly Cloudy 65 18.3 64 17.8 97 97 S 13 20 29.78 1008 10 16 0.00 0.00
4:13 am 04:13 Partly Cloudy 64 18 64 18 100 100 S 14 22 29.76 1008 10 16 0.00 0.00
4:56 am 04:56 Clear 65 18.3 63 17.2 93 93 SSE 9 15 29.77 1008 10 16 0.00 0.00
5:56 am 05:56 Clear 65 18.3 62 16.7 90 90 S 12 19 29.76 1008 10 16 0.00 0.00
6:56 am 06:56 Sunny 65 18.3 62 16.7 90 90 S 10 17 29.77 1008 10 16 0.00 0.00
7:56 am 07:56 Sunny 66 18.9 63 17.2 90 90 SW 10 17 29.78 1008 10 16 0.00 0.00
8:56 am 08:56 Sunny 68 20 63 17.2 84 84 WSW 13 20 29.78 1008 10 16 0.00 0.00
9:56 am 09:56 Sunny 72 22.2 65 18.3 79 79 SW 10 17 29.78 1008 10 16 0.00 0.00
10:56 am 10:56 Sunny 75 23.9 65 18.3 71 71 WSW 14 22 29.78 1009 10 16 0.00 0.00
11:56 am 11:56 Sunny 78 25.6 66 18.9 67 67 W 10 17 29.78 1009 10 16 0.00 0.00
12:56 pm 12:56 Sunny 83 28.3 68 20 61 61 WNW 7 11 29.76 1008 10 16 0.00 0.00
1:56 pm 13:56 Sunny 87 30.6 68 20 53 53 VRB 5 7 29.76 1008 10 16 0.00 0.00
2:56 pm 14:56 Sunny 89 31.7 68 20 50 50 VRB 6 9 29.75 1008 10 16 0.00 0.00
3:56 pm 15:56 Sunny 91 32.8 59 15 34 34 SW 3 6 29.75 1007 10 16 0.00 0.00
4:56 pm 16:56 Sunny 90 32.2 68 20 48 48 S 8 13 29.74 1007 10 16 0.00 0.00
5:56 pm 17:56 Sunny 89 31.7 64 17.8 43 43 S 9 15 29.74 1007 10 16 0.00 0.00
6:56 pm 18:56 Sunny 86 30 72 22.2 63 63 S 7 11 29.73 1007 10 16 0.00 0.00
7:56 pm 19:56 Sunny 81 27.2 72 22.2 74 74 S 7 11 29.74 1007 10 16 0.00 0.00
8:56 pm 20:56 Clear 75 23.9 71 21.7 88 88 S 7 11 29.75 1007 10 16 0.00 0.00
9:56 pm 21:56 Clear 72 22.2 69 20.6 91 91 S 6 9 29.76 1008 10 16 0.00 0.00
10:56 pm 22:56 Clear 70 21.1 67 19.4 90 90 S 6 9 29.77 1008 10 16 0.00 0.00
11:56 pm 23:56 Clear 71 21.7 67 19.4 87 87 SSW 7 11 29.77 1008 10 16 0.00 0.00

Powered by AerisWeather